Flag for Spain Weather past 2 weeks in Linares, Spain

Now
63 °F

Mild.


Feels Like: 63 °F
Forecast: 66 / 98 °F
Wind: No wind

Location: Granada / Aeropuerto

Current Time: Jul 23, 2014 at 5:27:23 AM

Latest Report: Jul 23, 2014 at 4:00 AM


Visibility: 19 mi

Pressure: 29.94 "Hg

Humidity: 49%

Dew point: 44 °F

Location of LinaresLocation

Historic Weather in Linares — Graph

°F

Linares temperature yesterday

Maximum temperature yesterday: 101 °F (at 6:00 PM)
Minimum temperature yesterday: 59 °F (at 7:00 AM)
Average temperature yesterday: 78 °F

Past Weeks' High & Low Weather Summary

 TemperatureHumidityPressure
High108 °F (Jul 17, 5:00 PM)88% (Jul 20, 7:00 AM)30.15 "Hg (Jul 20, 7:00 AM)
Low54 °F (Jul 21, 7:00 AM)10% (Jul 14, 2:00 PM)29.74 "Hg (Jul 18, 7:00 PM)
Average81 °F38%29.94 "Hg
* Reported Jul 8 4:00 AM — Jul 23 4:00 AM, Linares, Weather by CustomWeather, © 2014

Note: Actual official high and low records may vary slightly from our data, if they occured in-between our weather recording intervals... More about our weather records

Advertising

Linares weather history for previous 24 hours

 ConditionsComfort  
Time TempWeatherWind HumidityBarometerVisibility
4:00 AM
Jul 23
63 °FMild.No wind49%29.94 "Hg19 mi
3:00 AM64 °FMild.5 mph47%29.94 "Hg19 mi
2:00 AM66 °FMild.No wind47%29.93 "Hg19 mi
1:00 AM69 °FMild.No wind46%29.94 "Hg18 mi
6:00 PM
Jul 22
101 °FExtremely hot.6 mph13%29.79 "Hg19 mi
5:00 PM100 °FSunny.5 mph14%29.80 "Hg19 mi
4:00 PM98 °FExtremely hot.6 mph15%29.83 "Hg19 mi
3:00 PM96 °FSunny.7 mph19%29.85 "Hg19 mi
2:00 PM94 °FSunny.2 mph21%29.88 "Hg19 mi
1:00 PM91 °FHot.3 mph25%29.91 "Hg19 mi
12:00 PM86 °FPleasantly warm.2 mph31%29.95 "Hg14 mi
11:00 AM82 °FSunny.1 mph39%29.98 "Hg12 mi
10:00 AM76 °FMild.2 mph43%30.01 "Hg13 mi
9:00 AM71 °FSunny.2 mph50%30.03 "Hg12 mi
8:00 AM64 °FSunny.No wind58%30.05 "Hg12 mi
7:00 AM59 °FCool.2 mph66%30.06 "Hg19 mi
6:00 AM60 °FCool.1 mph67%30.06 "Hg19 mi
5:00 AM62 °FCool.2 mph64%30.05 "Hg19 mi
Weather by CustomWeather, © 2014

See weather overviewHow to use our weather pages